Regional Weather Roundup
Issued by NWS

Home | Current Version | Previous Version | Text Only | Print | Product List | Glossary On
Versions: 1 2 3 4 5 6 7 8 9 10 11 12 13 14 15 16 17 18 19 20 21 22 23 24 25 26 27 28 29 30 31 32 33 34 35 36 37 38 39 40 41 42 43 44 45 46 47 48 49 50
269
ASUS44 KLIX 230501
RWRLA
LOUISIANA WEATHER ROUNDUP
NATIONAL WEATHER SERVICE NEW ORLEANS LA
1200 AM CDT WED JUL 23 2014

NOTE: "FAIR" INDICATES FEW OR NO CLOUDS BELOW 12,000 FEET WITH NO
      SIGNIFICANT WEATHER AND/OR OBSTRUCTIONS TO VISIBILITY.
      SKY/WX - SKY CONDITION AND SIGNIFICANT WEATHER.
      TMP - AIR TEMPERATURE.    DP   - DEWPOINT TEMPERATURE.
      RH  - RELATIVE HUMIDITY.  PRES - PRESSURE.
      HX  - HEAT INDEX.         WCI  - WIND CHILL INDEX.

*  THESE STATIONS ARE NOT NWS OR FAA STATIONS AND ARE NOT UNDER
   NWS QUALITY CONTROL.

LAZ040-048-061>063-065-066-069-230600-
SOUTHEAST LOUISIANA

CITY           SKY/WX    TMP DP  RH WIND       PRES   REMARKS
N.O. AUDUBON     N/A     81  73  77 MISG        N/A
N.O. INTL ARPT MOCLDY    78  70  76 E5        30.03S
N.O. LAKEFRONT MOCLDY    79  70  74 E10       30.04S
N.O. DOWNTOWN* FAIR      81  68  65 NE3       30.03F
SLIDELL        MOCLDY    73  69  87 E5        30.04R
BATON ROUGE    MOCLDY    75  72  90 NE7       30.04S
BOOTHVILLE     PTCLDY    78  72  81 SE3       30.04S
BELLE CHASSE   NOT AVBL
BOGALUSA*        N/A     72  68  89 CALM      30.07S FOG
GALLIANO*      NOT AVBL
NEW ROADS*     FAIR      73  72  95 CALM      30.04S
GONZALES*      FAIR      75  75 100 CALM      30.03S
HAMMOND*       PTCLDY    73  70  88 NE3       30.06F
HOUMA*         PTCLDY    76  71  84 NE3       30.02S
PORT FOURCHON* MOCLDY    82  77  83 SE7       30.04S

$$

LAZ041-044-053-054-230600-
SOUTHWEST LOUISIANA

CITY           SKY/WX    TMP DP  RH WIND       PRES   REMARKS
LAKE CHARLES   CLEAR     77  74  90 CALM      30.02S
LAFAYETTE      MOCLDY    77  73  87 NE3       30.02S
PATTERSON      MOCLDY    77  75  94 E5        30.04F
SALT POINT       N/A     81  76  84 CALM      30.00F
NEW IBERIA     MOCLDY    78  73  84 CALM      30.02S
CHENAULT AIRPK CLEAR     78  72  82 CALM      30.03S

$$

LAZ027-028-230600-
CENTRAL LOUISIANA

CITY           SKY/WX    TMP DP  RH WIND       PRES   REMARKS
FORT POLK      MOCLDY    79  72  79 E6        30.05R
ALEXANDRIA INT CLEAR     75  73  93 NW3       30.02F
ALEXANDRIA     CLEAR     75  72  90 CALM      30.04F FOG

$$

LAZ001-002-230600-
NORTHWEST LOUISIANA

CITY           SKY/WX    TMP DP  RH WIND       PRES   REMARKS
SHREVEPORT     PTCLDY    76  70  82 CALM      30.05R
BARKSDALE AFB  CLEAR     74  70  86 NE3       30.05S
DTN SHREVEPORT CLEAR     75  70  84 CALM      30.05S

$$

LAZ014-016-230600-
NORTHEAST LOUISIANA

CITY           SKY/WX    TMP DP  RH WIND       PRES   REMARKS
MONROE         PTCLDY    74  71  91 CALM      30.06R
TALLULAH       CLOUDY    76  73  91 NE3       30.05R

$$




USA.gov is the U.S. government's official web portal to all federal, state and local government web resources and services.